Tracking 35274 objects as of 11-Sep-2026
HD Live streaming from Space Station
objects crossing your sky now

SL-8 R/B


SL-8 R/B is no longer on orbit


NORAD ID: 6273
Int'l Code: 1972-088B
Launch date: November 3, 1972
Source: Commonwealth of Independent States (former USSR) (CIS)
Launch site: PLESETSK MISSILE AND SPACE COMPLEX (PKMTR)
Decay date: 1980-07-19

Note: This is a ROCKET BODY
Your satellite tracking list
Your tracking list is empty




NASA's NSSDC Master Catalog

Two Line Element Set (TLE):
1 06273U 72088  B 80199.53739154  .02917649 +09881-6 +00620-4 0  9999
2 06273 073.9808 259.6624 0010221 259.6530 100.4118 16.29527664428507
Source of the keplerian elements: AFSPC